#timestamp,LO_Frequency,Hit,StdDev 
1524528015.3,286047002.6,N
1524528035.1,286047003.5,N
1524528055.8,286047001.4,N
1524528075.7,286047002.0,N
1524528095.5,286047002.3,N
1524528115.4,286047002.1,N
1524528135.2,286047001.4,N
1524528155.0,286047001.6,N
1524528155.9,286047001.6,N
1524528175.8,286047002.1,N
1524528195.6,286046999.7,N
1524528215.4,286047001.5,N
1524528235.3,286047002.6,N
1524528255.1,286047000.1,N
1524528275.9,286047001.1,N
1524528295.7,286047002.7,N
1524528315.5,286047000.1,N
1524528335.4,286047000.0,N
1524528355.2,286047000.7,N
1524528375.1,286046998.4,N
1524528376.0,286046998.4,N
1524528395.8,286047000.5,N
1524528415.6,286047000.3,N
1524528435.5,286047001.6,N
1524528455.3,286046999.8,N
1524528475.1,286047000.4,N
1524528495.9,286047000.2,N
1524528515.7,286047000.3,N
1524528535.6,286047000.1,N
1524528555.4,286047001.5,N
1524528575.2,286047002.6,N
1524528595.1,286046999.7,N
1524528596.0,286046999.7,N
1524528615.8,286047000.1,N
1524528635.7,286046999.7,N
1524528655.5,286046999.7,N
1524528675.3,286047000.4,N
1524528695.2,286047000.3,N
1524528715.0,286046998.7,N
1524528715.9,286046998.7,N
1524528735.7,286047000.4,N
1524528755.6,286047000.0,N
1524528775.4,286047002.3,N
1524528795.3,286047000.1,N
1524528815.1,286047002.8,N
1524528816.0,286047002.8,N
1524528835.8,286047002.4,N
1524528855.7,286047002.5,N
1524528875.5,286046999.8,N
1524528895.3,286047000.4,N
1524528915.2,286046999.7,N
1524528935.0,286047002.7,N
1524528935.9,286047002.7,N
1524528955.8,286047000.3,N
1524528975.6,286047000.4,N
1524528995.4,286047000.2,N
1524529015.3,286046999.9,N
1524529035.1,286047002.0,N
1524529055.9,286046998.5,N
1524529075.7,286047000.9,N
1524529095.5,286047000.9,N
1524529115.4,286046998.5,N
1524529135.2,286047000.7,N
1524529155.0,286047001.0,N
1524529155.9,286047001.0,N
1524529175.8,286047000.0,N
1524529195.6,286047002.8,N
1524529215.5,286047002.4,N
1524529235.3,286047000.2,N
1524529255.1,286047001.0,N
1524529275.9,286046998.5,N
1524529295.7,286046998.4,N
1524529315.5,286047001.0,N
1524529335.4,286047000.9,N
1524529355.2,286047000.2,N
1524529375.1,286047000.4,N
1524529376.0,286047000.4,N
1524529395.8,286047000.6,N
1524529415.6,286046999.9,N
1524529435.5,286047000.8,N
1524529455.3,286047000.1,N
1524529475.1,286047002.0,N
1524529495.9,286047002.3,N
1524529515.7,286047000.3,N
1524529535.6,286047001.9,N
1524529555.4,286047000.0,N
1524529575.2,286047000.1,N
1524529595.1,286047002.7,N
1524529596.0,286047002.7,N
1524529615.8,286047000.7,N
1524529635.7,286046999.0,N
1524529655.5,286046996.6,N
1524529675.3,286046996.7,N
1524529695.2,286046995.4,Y
1524529715.0,286046995.5,P
1524529715.9,286046995.5,N
1524529735.7,286046996.4,N
1524529755.6,286046995.5,N
1524529775.4,286046998.0,N
1524529795.3,286046997.7,N
1524529815.1,286046996.4,N
1524529816.0,286046996.4,N
1524529835.8,286046995.9,N
1524529855.7,286046993.9,Y
1524529875.5,286046998.0,P
1524529895.4,286046999.1,N
1524529915.2,286046998.8,N
1524529935.0,286046998.6,N
1524529935.9,286046998.6,N
1524529955.8,286046998.4,N
1524529975.6,286046998.8,N
1524529995.4,286046998.8,N
1524530015.3,286046999.5,N
1524530035.1,286046996.2,Y
1524530055.9,286046999.3,P
1524530075.7,286046999.4,N
1524530095.5,286046997.5,P
1524530115.4,286046995.2,Y
1524530135.2,286046997.9,P
1524530155.1,286046997.3,P
1524530156.0,286046997.3,P
1524530175.8,286046997.7,Y
1524530195.6,286046999.3,P
1524530215.5,286046996.8,P
1524530235.3,286046997.0,N
1524530255.1,286046996.6,Y
1524530275.9,286047000.9,P
1524530295.7,286046998.4,N
1524530315.6,286046998.1,N
1524530335.4,286046998.4,N
1524530355.2,286047000.9,N
1524530375.1,286047000.1,N
1524530376.0,286047000.1,N
1524530395.8,286046999.9,N
1524530415.7,286047002.7,N
1524530435.5,286047000.9,N
1524530455.3,286046998.2,N
1524530475.2,286047000.5,N
1524530495.9,286047002.4,N
1524530515.7,286046999.7,N
1524530535.6,286047002.2,N
1524530555.4,286047002.4,N
1524530575.3,286047001.0,N
1524530595.1,286047000.5,N
1524530596.0,286047000.5,N
1524530615.8,286047000.1,N
1524530635.7,286047001.2,N
1524530655.5,286046999.3,N
1524530675.3,286046996.7,N
1524530695.2,286046997.1,N
1524530715.0,286046997.0,N
1524530715.9,286046997.0,N
1524530735.8,286046999.1,N
1524530755.6,286046996.6,N
1524530775.4,286046999.1,N
1524530795.3,286046998.7,N
1524530815.1,286046997.1,N
1524530835.8,286046994.9,N
1524530855.7,286046998.0,N
1524530875.5,286046997.1,N
1524530895.4,286046999.0,N
1524530915.2,286046999.5,N
1524530935.0,286046997.4,N
1524530935.9,286046997.4,N
1524530955.8,286046996.6,N
1524530975.6,286046998.8,N
1524530995.5,286046999.1,N
1524531015.3,286046997.0,N
1524531035.1,286046998.7,N
1524531055.9,286046996.6,N
1524531075.7,286046997.0,N
1524531095.5,286046996.6,N
1524531115.4,286046999.2,N
1524531135.2,286046999.0,N
1524531155.1,286047001.0,N
1524531156.0,286047001.0,N
1524531175.8,286046999.9,N
1524531195.6,286047000.2,N
1524531215.5,286047004.2,N
1524531235.3,286047004.4,N
1524531255.1,286047002.2,N
1524531275.9,286047000.0,N
1524531295.7,286047001.6,N
1524531315.6,286047004.3,N
1524531335.4,286047002.6,N
1524531355.2,286047004.4,N
1524531375.1,286047005.5,N
1524531376.0,286047005.5,N
1524531395.8,286047004.6,N
1524531415.6,286047004.5,N
1524531435.5,286047003.0,N
1524531455.3,286047003.0,N
1524531475.2,286047004.5,N
1524531495.9,286047003.4,N
1524531515.7,286047006.0,N
1524531535.6,286047007.1,N
1524531555.4,286047006.6,N
1524531575.2,286047009.1,N
1524531595.1,286047006.3,N
1524531596.0,286047006.3,N
